Location: Betz
(49.1556°N, 2.9558°E)
Time: 12:45:35
(UTC+00:00)

Cosmos 1943 - Visible Passes

Search period start: 11 December 2019 00:00
Search period end: 21 December 2019 00:00
Orbit: 835 x 848 km, 71.0° (Epoch: 10 December)

Date Brightness Start Highest point End Pass type
(mag) Time Alt. Az. Time Alt. Az. Time Alt. Az.
11 Dec 4.4 03:47:23 37° ENE 03:47:23 37° ENE 03:51:53 10° ESE visible
11 Dec 3.5 05:29:14 35° WNW 05:30:46 42° WSW 05:36:00 10° S visible
11 Dec 5.3 18:37:17 10° SSE 18:37:57 13° SSE 18:37:57 13° SSE visible
12 Dec 4.9 03:33:26 29° E 03:33:26 29° E 03:36:46 10° ESE visible
12 Dec 3.4 05:15:18 43° W 05:15:44 44° WSW 05:21:01 10° S visible
12 Dec 4.8 18:22:20 10° SSE 18:24:15 19° SSE 18:24:15 19° SSE visible
12 Dec 5.8 20:05:38 10° SW 20:06:08 12° SW 20:06:08 12° SW visible
13 Dec 5.3 03:19:36 21° ESE 03:19:36 21° ESE 03:21:39 10° ESE visible
13 Dec 3.6 05:01:28 44° SW 05:01:28 44° SW 05:06:02 10° S visible
13 Dec 4.4 18:07:23 10° SSE 18:10:30 25° SE 18:10:30 25° SE visible
13 Dec 5.2 19:50:33 10° SW 19:52:23 21° SW 19:52:23 21° SW visible
14 Dec 5.8 03:05:49 13° ESE 03:05:49 13° ESE 03:06:32 10° ESE visible
14 Dec 4.1 04:47:41 34° SSW 04:47:41 34° SSW 04:51:02 10° S visible
14 Dec 4.1 17:52:27 10° SSE 17:56:42 28° ESE 17:56:42 28° ESE visible
14 Dec 4.7 19:35:27 10° SW 19:38:34 32° WSW 19:38:34 32° WSW visible
15 Dec 4.8 04:33:58 23° S 04:33:58 23° S 04:36:02 10° S visible
15 Dec 4.0 17:37:30 10° SSE 17:42:12 28° ESE 17:42:50 27° E visible
15 Dec 4.0 19:20:22 10° SW 19:24:41 46° W 19:24:41 46° W visible
16 Dec 5.4 04:20:18 14° S 04:20:18 14° S 04:21:02 10° S visible
16 Dec 4.2 17:22:34 10° SSE 17:27:10 26° ESE 17:28:51 23° ENE visible
16 Dec 3.6 19:05:17 10° SW 19:10:43 58° WNW 19:10:43 58° WNW visible
17 Dec 4.2 17:07:40 10° SSE 17:12:09 25° ESE 17:14:49 18° ENE visible
17 Dec 3.5 18:50:12 10° SW 18:55:47 61° WNW 18:56:40 54° NNW visible
17 Dec 5.9 20:37:33 10° WNW 20:38:31 13° WNW 20:38:31 13° WNW visible
18 Dec 4.3 16:52:44 10° SSE 16:57:08 24° ESE 17:00:41 13° ENE visible
18 Dec 3.5 18:35:08 10° SW 18:40:44 64° WNW 18:42:32 42° N visible
18 Dec 5.7 20:22:21 10° WNW 20:24:22 15° NW 20:24:22 15° NW visible
19 Dec 4.4 16:37:50 10° SSE 16:42:07 23° ESE 16:46:25 10° NE visible
19 Dec 3.4 18:20:03 10° SW 18:25:40 67° WNW 18:28:19 32° NNE visible
19 Dec 5.5 20:07:09 10° WNW 20:10:10 17° NW 20:10:10 17° NW visible
20 Dec 4.5 16:22:55 10° SSE 16:27:06 22° E 16:31:17 10° NE visible
20 Dec 3.4 18:04:58 10° SW 18:10:36 70° WNW 18:14:03 24° NNE visible
20 Dec 5.4 19:51:57 10° W 19:55:44 18° NW 19:55:53 18° NW visible
